| time (UTC) | temp C | wind direction | speed KPH | gust KPH | rain 1hr cm | rain 24hr cm | rain mn cm | humidity % | barometer mb |
| 20260505124535 | 3 | 360 | 0.0 | 1.6 | 0.00 | 0.00 | 0.00 | 59 | 999.4 |
| 20260505123029 | 3 | 360 | 0.0 | 0.0 | 0.00 | 0.00 | 0.00 | 57 | 999.1 |
| 20260505121526 | 3 | 360 | 0.0 | 0.0 | 0.00 | 0.00 | 0.00 | 57 | 999.0 |
| 20260505120024 | 4 | 360 | 0.0 | 0.0 | 0.00 | 0.00 | 0.00 | 56 | 999.2 |
| 20260505114522 | 4 | 360 | 0.0 | 0.0 | 0.00 | 0.00 | 0.00 | 55 | 999.4 |
| 20260505113021 | 5 | 360 | 0.0 | 0.0 | 0.00 | 0.00 | 0.00 | 55 | 999.1 |
| 20260505111517 | 5 | 360 | 0.0 | 0.0 | 0.00 | 0.00 | 0.00 | 53 | 998.8 |
| 20260505101506 | 6 | 360 | 0.0 | 1.6 | 0.00 | 0.00 | 0.00 | 48 | 998.4 |
| 20260505100002 | 6 | 360 | 0.0 | 0.0 | 0.00 | 0.00 | 0.00 | 47 | 998.7 |
| 20260505094600 | 6 | 360 | 0.0 | 0.0 | 0.00 | 0.00 | 0.00 | 46 | 998.7 |
| 20260505093031 | 7 | 360 | 0.0 | 0.0 | 0.00 | 0.00 | 0.00 | 44 | 998.8 |
| 20260505091528 | 7 | 360 | 0.0 | 0.0 | 0.00 | 0.00 | 0.00 | 42 | 999.2 |
| 20260505090105 | 8 | 360 | 0.0 | 0.0 | 0.00 | 0.00 | 0.00 | 42 | 999.4 |
| 20260505084555 | 8 | 360 | 0.0 | 0.0 | 0.00 | 0.00 | 0.00 | 41 | 999.7 |
| 20260505083056 | 8 | 360 | 0.0 | 4.8 | 0.00 | 0.00 | 0.00 | 40 | 1000.0 |
| 20260505081548 | 7 | 360 | 0.0 | 1.6 | 0.00 | 0.00 | 0.00 | 41 | 1000.1 |
| 20260505080046 | 7 | 360 | 0.0 | 1.6 | 0.00 | 0.00 | 0.00 | 44 | 1000.0 |
| 20260505074545 | 7 | 360 | 0.0 | 1.6 | 0.00 | 0.00 | 0.00 | 45 | 1000.0 |
| 20260505073041 | 7 | 360 | 0.0 | 0.0 | 0.00 | 0.00 | 0.00 | 46 | 999.8 |
| 20260505071538 | 7 | 360 | 0.0 | 0.0 | 0.00 | 0.00 | 0.00 | 46 | 999.6 |
| 20260505070135 | 7 | 360 | 0.0 | 0.0 | 0.00 | 0.00 | 0.00 | 45 | 999.4 |
| 20260505064533 | 7 | 360 | 0.0 | 0.0 | 0.00 | 0.00 | 0.00 | 46 | 999.4 |
| 20260505063036 | 7 | 360 | 0.0 | 0.0 | 0.00 | 0.00 | 0.00 | 45 | 999.3 |
| 20260505061530 | 7 | 360 | 0.0 | 1.6 | 0.00 | 0.00 | 0.00 | 44 | 999.2 |
| 20260505060033 | 7 | 360 | 0.0 | 1.6 | 0.00 | 0.00 | 0.00 | 43 | 999.3 |
| 20260505054536 | 7 | 360 | 0.0 | 1.6 | 0.00 | 0.00 | 0.00 | 43 | 999.4 |
| 20260505053033 | 7 | 360 | 0.0 | 0.0 | 0.00 | 0.00 | 0.00 | 41 | 999.5 |
| 20260505051556 | 8 | 360 | 0.0 | 1.6 | 0.00 | 0.00 | 0.00 | 38 | 999.6 |
| 20260505041552 | 9 | 360 | 0.0 | 1.6 | 0.00 | 0.00 | 0.00 | 36 | 999.9 |
| 20260505040052 | 9 | 360 | 0.0 | 0.0 | 0.00 | 0.00 | 0.00 | 36 | 999.8 |
| 20260505034548 | 9 | 360 | 0.0 | 1.6 | 0.00 | 0.00 | 0.00 | 35 | 999.7 |
| 20260505033109 | 9 | 360 | 0.0 | 1.6 | 0.00 | 0.00 | 0.00 | 33 | 999.7 |
| 20260505031549 | 9 | 360 | 0.0 | 1.6 | 0.00 | 0.00 | 0.00 | 34 | 999.2 |
| 20260505030047 | 10 | 360 | 0.0 | 3.2 | 0.00 | 0.00 | 0.00 | 32 | 999.0 |
| 20260505024544 | 10 | 360 | 0.0 | 3.2 | 0.00 | 0.00 | 0.00 | 31 | 998.9 |
| 20260505023057 | 11 | 360 | 0.0 | 0.0 | 0.00 | 0.00 | 0.00 | 29 | 998.9 |
| 20260505021544 | 12 | 360 | 0.0 | 4.8 | 0.00 | 0.00 | 0.00 | 26 | 998.7 |
| 20260505020048 | 12 | 360 | 0.0 | 1.6 | 0.00 | 0.00 | 0.00 | 25 | 998.7 |
| 20260505014542 | 13 | 360 | 3.2 | 14.5 | 0.00 | 0.00 | 0.00 | 24 | 998.6 |
| 20260505013041 | 13 | 360 | 0.0 | 4.8 | 0.00 | 0.00 | 0.00 | 23 | 998.3 |
| 20260505011540 | 13 | 360 | 1.6 | 14.5 | 0.00 | 0.00 | 0.00 | 22 | 998.2 |
| 20260505010042 | 14 | 360 | 3.2 | 12.9 | 0.00 | 0.00 | 0.00 | 21 | 998.3 |
| 20260505004546 | 14 | 360 | 4.8 | 14.5 | 0.00 | 0.00 | 0.00 | 20 | 998.2 |
| 20260505003038 | 15 | 360 | 8.0 | 17.7 | 0.00 | 0.00 | 0.00 | 20 | 998.5 |
| 20260505001536 | 15 | 360 | 8.0 | 20.9 | 0.00 | 0.00 | 0.00 | 19 | 998.5 |
| 20260505000037 | 15 | 360 | 4.8 | 17.7 | 0.00 | 0.00 | 0.00 | 18 | 998.5 |
| 20260504234546 | 16 | 360 | 4.8 | 14.5 | 0.00 | 0.00 | 0.00 | 19 | 998.4 |
| 20260504233034 | 16 | 360 | 3.2 | 16.1 | 0.00 | 0.00 | 0.00 | 19 | 998.2 |
| 20260504231542 | 17 | 360 | 9.7 | 24.1 | 0.00 | 0.00 | 0.00 | 18 | 998.2 |
| 20260504230031 | 17 | 360 | 4.8 | 17.7 | 0.00 | 0.00 | 0.00 | 19 | 998.0 |
| 20260504224608 | 17 | 360 | 8.0 | 22.5 | 0.00 | 0.00 | 0.00 | 20 | 997.7 |
| 20260504223059 | 18 | 360 | 6.4 | 19.3 | 0.00 | 0.00 | 0.00 | 19 | 998.0 |
| 20260504221604 | 18 | 360 | 3.2 | 19.3 | 0.00 | 0.00 | 0.00 | 19 | 997.8 |
| 20260504220055 | 18 | 360 | 1.6 | 17.7 | 0.00 | 0.00 | 0.00 | 19 | 998.0 |
| 20260504214553 | 18 | 360 | 6.4 | 17.7 | 0.00 | 0.00 | 0.00 | 21 | 998.4 |
| 20260504213053 | 17 | 360 | 6.4 | 19.3 | 0.00 | 0.00 | 0.00 | 21 | 998.5 |
| 20260504211542 | 17 | 360 | 4.8 | 17.7 | 0.00 | 0.00 | 0.00 | 23 | 998.7 |
| 20260504210042 | 17 | 360 | 4.8 | 16.1 | 0.00 | 0.00 | 0.00 | 24 | 998.8 |
| 20260504204617 | 16 | 360 | 8.0 | 24.1 | 0.00 | 0.00 | 0.00 | 24 | 999.1 |
| 20260504203035 | 17 | 360 | 6.4 | 24.1 | 0.00 | 0.00 | 0.00 | 25 | 999.3 |
| 20260504201531 | 17 | 360 | 3.2 | 14.5 | 0.00 | 0.00 | 0.00 | 27 | 999.2 |
| 20260504200034 | 16 | 360 | 6.4 | 20.9 | 0.00 | 0.00 | 0.00 | 28 | 999.4 |
| 20260504194528 | 17 | 360 | 1.6 | 17.7 | 0.00 | 0.00 | 0.00 | 27 | 999.7 |
| 20260504193026 | 16 | 360 | 4.8 | 17.7 | 0.00 | 0.00 | 0.00 | 29 | 999.6 |
| 20260504191521 | 16 | 360 | 0.0 | 12.9 | 0.00 | 0.00 | 0.00 | 31 | 999.7 |
| 20260504190020 | 16 | 360 | 6.4 | 16.1 | 0.00 | 0.00 | 0.00 | 30 | 1000.0 |
| 20260504184519 | 16 | 360 | 8.0 | 16.1 | 0.00 | 0.00 | 0.00 | 31 | 1000.0 |
| 20260504183016 | 16 | 360 | 6.4 | 16.1 | 0.00 | 0.00 | 0.00 | 32 | 1000.2 |
| 20260504181511 | 16 | 360 | 4.8 | 14.5 | 0.00 | 0.00 | 0.00 | 33 | 1000.4 |
| 20260504180005 | 15 | 360 | 4.8 | 14.5 | 0.00 | 0.00 | 0.00 | 36 | 1000.5 |
| 20260504174501 | 15 | 360 | 1.6 | 9.7 | 0.00 | 0.00 | 0.00 | 40 | 1000.9 |
| 20260504173058 | 14 | 360 | 0.0 | 16.1 | 0.00 | 0.00 | 0.00 | 40 | 1001.2 |
| 20260504171554 | 13 | 360 | 0.0 | 4.8 | 0.00 | 0.00 | 0.00 | 43 | 1001.2 |